When you browse on this site, cookies collect data to enhance your experience and personalize the content and advertising you see.
Visit our Privacy Policy to learn more. By continuing to use the site, you agree to this use of cookies and data.

Meteo pe oră la Dziarnowo

Astăzi, 25 Septembrie, Vineri

Timp Temperatura Precipitaţii Vânt Presiune Umiditate
00:00 +17°C° 0 mm 2 m/s 745 mmHg 75%
01:00 +17°C° 0 mm 2 m/s 745 mmHg 77%
02:00 +17°C° 0 mm 2 m/s 745 mmHg 79%
03:00 +16°C° 0 mm 3 m/s 744 mmHg 80%
04:00 +16°C° 0 mm 3 m/s 744 mmHg 82%
05:00 +16°C° 0 mm 3 m/s 743 mmHg 81%
06:00 +17°C° 0 mm 4 m/s 743 mmHg 81%
07:00 +17°C° 0 mm 4 m/s 742 mmHg 80%
08:00 +19°C° 0 mm 5 m/s 742 mmHg 72%
09:00 +21°C° 0 mm 5 m/s 742 mmHg 65%
10:00 +23°C° 0 mm 6 m/s 741 mmHg 57%
11:00 +23°C° 0 mm 6 m/s 741 mmHg 54%
12:00 +24°C° 0 mm 6 m/s 740 mmHg 51%
13:00 +26°C° 0 mm 6 m/s 739 mmHg 48%
14:00 +26°C° 0 mm 6 m/s 739 mmHg 49%
15:00 +25°C° 0 mm 5 m/s 739 mmHg 51%
16:00 +25°C° 0 mm 5 m/s 738 mmHg 52%
17:00 +22°C° 0.6 mm 4 m/s 738 mmHg 63%
18:00 +20°C° 0.6 mm 4 m/s 738 mmHg 74%
19:00 +18°C° 0.6 mm 4 m/s 739 mmHg 85%
20:00 +18°C° 0.1 mm 3 m/s 739 mmHg 86%
21:00 +17°C° 0.1 mm 2 m/s 739 mmHg 87%
22:00 +17°C° 0.1 mm 2 m/s 739 mmHg 87%
23:00 +17°C° 0 mm 2 m/s 739 mmHg 89%

Mâine, 26 Septembrie, Sâmbătă

Timp Temperatura Precipitaţii Vânt Presiune Umiditate
00:00 +16°C° 0 mm 2 m/s 738 mmHg 90%
01:00 +16°C° 0 mm 2 m/s 738 mmHg 91%
02:00 +16°C° 0 mm 3 m/s 738 mmHg 90%
03:00 +17°C° 0 mm 3 m/s 737 mmHg 89%
04:00 +17°C° 0 mm 4 m/s 737 mmHg 88%
05:00 +16°C° 0 mm 5 m/s 737 mmHg 86%
06:00 +17°C° 0 mm 5 m/s 736 mmHg 83%
07:00 +17°C° 0 mm 6 m/s 736 mmHg 81%
08:00 +19°C° 0 mm 6 m/s 736 mmHg 76%
09:00 +20°C° 0 mm 6 m/s 736 mmHg 70%
10:00 +21°C° 0 mm 6 m/s 736 mmHg 65%
11:00 +20°C° 0.1 mm 6 m/s 736 mmHg 68%
12:00 +20°C° 0.1 mm 5 m/s 737 mmHg 70%
13:00 +20°C° 0.1 mm 5 m/s 737 mmHg 73%
14:00 +17°C° 1.2 mm 5 m/s 737 mmHg 79%
15:00 +17°C° 1.2 mm 4 m/s 737 mmHg 84%
16:00 +15°C° 1.2 mm 4 m/s 738 mmHg 90%
17:00 +14°C° 0.5 mm 3 m/s 738 mmHg 89%
18:00 +15°C° 0.5 mm 2 m/s 739 mmHg 89%
19:00 +14°C° 0.5 mm 2 m/s 739 mmHg 88%
20:00 +14°C° 0.3 mm 1 m/s 739 mmHg 88%
21:00 +14°C° 0.3 mm 1 m/s 739 mmHg 87%
22:00 +14°C° 0.3 mm 1 m/s 740 mmHg 87%
23:00 +13°C° 2.1 mm 2 m/s 739 mmHg 88%

Poimâine, 27 Septembrie, Duminică

Timp Temperatura Precipitaţii Vânt Presiune Umiditate
00:00 +11°C° 2.1 mm 4 m/s 739 mmHg 89%
01:00 +10°C° 2.1 mm 5 m/s 739 mmHg 91%
02:00 +10°C° 2.6 mm 5 m/s 739 mmHg 92%
03:00 +9°C° 2.6 mm 5 m/s 739 mmHg 93%
04:00 +9°C° 2.6 mm 5 m/s 739 mmHg 94%
05:00 +9°C° 1.1 mm 5 m/s 739 mmHg 94%
06:00 +9°C° 1.1 mm 6 m/s 739 mmHg 93%
07:00 +9°C° 1.1 mm 6 m/s 739 mmHg 93%
08:00 +9°C° 2.3 mm 6 m/s 739 mmHg 93%
09:00 +9°C° 2.3 mm 6 m/s 739 mmHg 93%
10:00 +9°C° 2.3 mm 6 m/s 739 mmHg 93%
11:00 +8°C° 1.7 mm 6 m/s 740 mmHg 92%
12:00 +8°C° 1.7 mm 6 m/s 740 mmHg 91%
13:00 +8°C° 1.7 mm 6 m/s 740 mmHg 90%
14:00 +8°C° 0.5 mm 6 m/s 741 mmHg 90%
15:00 +8°C° 0.5 mm 6 m/s 741 mmHg 89%
16:00 +8°C° 0.5 mm 5 m/s 742 mmHg 89%
17:00 +8°C° 0.5 mm 5 m/s 742 mmHg 89%
18:00 +8°C° 0.5 mm 4 m/s 743 mmHg 90%
19:00 +9°C° 0.5 mm 3 m/s 744 mmHg 90%
20:00 +9°C° 0.1 mm 3 m/s 745 mmHg 89%
21:00 +9°C° 0.1 mm 3 m/s 745 mmHg 87%
22:00 +9°C° 0.1 mm 3 m/s 746 mmHg 86%
23:00 +9°C° 0 mm 3 m/s 746 mmHg 86%

28 Septembrie, Luni

Timp Temperatura Precipitaţii Vânt Presiune Umiditate
00:00 +9°C° 0 mm 3 m/s 746 mmHg 86%
01:00 +9°C° 0 mm 3 m/s 747 mmHg 86%
02:00 +8°C° 0 mm 3 m/s 747 mmHg 86%
03:00 +8°C° 0 mm 3 m/s 747 mmHg 86%
04:00 +8°C° 0 mm 3 m/s 748 mmHg 86%
05:00 +8°C° 0 mm 3 m/s 748 mmHg 84%
06:00 +8°C° 0 mm 3 m/s 748 mmHg 83%
07:00 +9°C° 0 mm 3 m/s 749 mmHg 81%
08:00 +11°C° 0 mm 4 m/s 749 mmHg 74%
09:00 +13°C° 0 mm 4 m/s 749 mmHg 67%
10:00 +15°C° 0 mm 4 m/s 749 mmHg 59%
11:00 +15°C° 0 mm 4 m/s 749 mmHg 56%
12:00 +17°C° 0 mm 4 m/s 749 mmHg 53%
13:00 +18°C° 0 mm 4 m/s 749 mmHg 50%
14:00 +18°C° 0 mm 4 m/s 749 mmHg 53%
15:00 +17°C° 0 mm 3 m/s 749 mmHg 56%
16:00 +17°C° 0 mm 3 m/s 748 mmHg 59%
17:00 +14°C° 0 mm 3 m/s 748 mmHg 63%
18:00 +13°C° 0 mm 3 m/s 749 mmHg 67%
19:00 +11°C° 0 mm 3 m/s 749 mmHg 71%
20:00 +11°C° 0 mm 3 m/s 749 mmHg 73%
21:00 +11°C° 0 mm 3 m/s 748 mmHg 75%
22:00 +11°C° 0 mm 3 m/s 748 mmHg 77%
23:00 +10°C° 0 mm 3 m/s 748 mmHg 80%

29 Septembrie, Marţi

Timp Temperatura Precipitaţii Vânt Presiune Umiditate
00:00 +10°C° 0 mm 2 m/s 748 mmHg 84%
01:00 +10°C° 0 mm 2 m/s 748 mmHg 88%
02:00 +10°C° 0 mm 2 m/s 748 mmHg 89%
03:00 +10°C° 0 mm 1 m/s 747 mmHg 89%
04:00 +10°C° 0 mm 1 m/s 747 mmHg 90%
05:00 +10°C° 0 mm 1 m/s 748 mmHg 90%
06:00 +11°C° 0 mm 1 m/s 748 mmHg 90%
07:00 +11°C° 0 mm 1 m/s 748 mmHg 90%
08:00 +12°C° 0 mm 1 m/s 748 mmHg 84%
09:00 +14°C° 0 mm 1 m/s 749 mmHg 79%
10:00 +15°C° 0 mm 2 m/s 749 mmHg 74%
11:00 +15°C° 0.2 mm 2 m/s 749 mmHg 71%
12:00 +16°C° 0.2 mm 3 m/s 750 mmHg 68%
13:00 +17°C° 0.2 mm 4 m/s 750 mmHg 65%
14:00 +17°C° 0.1 mm 3 m/s 750 mmHg 66%
15:00 +16°C° 0.1 mm 3 m/s 750 mmHg 67%
16:00 +16°C° 0.1 mm 3 m/s 751 mmHg 68%
17:00 +14°C° 0 mm 3 m/s 751 mmHg 72%
18:00 +13°C° 0 mm 3 m/s 751 mmHg 76%
19:00 +13°C° 0 mm 2 m/s 752 mmHg 80%
20:00 +12°C° 0 mm 2 m/s 752 mmHg 83%
21:00 +12°C° 0 mm 2 m/s 752 mmHg 87%
22:00 +10°C° 0 mm 2 m/s 752 mmHg 90%
23:00 +10°C° 0 mm 2 m/s 752 mmHg 91%

30 Septembrie, Miercuri

Timp Temperatura Precipitaţii Vânt Presiune Umiditate
00:00 +10°C° 0 mm 2 m/s 753 mmHg 92%
01:00 +10°C° 0 mm 2 m/s 753 mmHg 93%
02:00 +9°C° 0 mm 2 m/s 753 mmHg 93%
03:00 +10°C° 0 mm 1 m/s 753 mmHg 93%
04:00 +10°C° 0 mm 1 m/s 753 mmHg 93%
05:00 +10°C° 0 mm 1 m/s 753 mmHg 92%
06:00 +11°C° 0 mm 1 m/s 753 mmHg 90%
07:00 +11°C° 0 mm 1 m/s 753 mmHg 89%
08:00 +13°C° 0 mm 1 m/s 753 mmHg 81%
09:00 +14°C° 0 mm 1 m/s 753 mmHg 74%
10:00 +16°C° 0 mm 1 m/s 753 mmHg 67%
11:00 +18°C° 0 mm 1 m/s 752 mmHg 63%
12:00 +18°C° 0 mm 1 m/s 752 mmHg 59%
13:00 +19°C° 0 mm 1 m/s 752 mmHg 55%
14:00 +19°C° 0 mm 1 m/s 751 mmHg 57%
15:00 +19°C° 0 mm 1 m/s 751 mmHg 58%
16:00 +18°C° 0 mm 1 m/s 751 mmHg 60%
17:00 +16°C° 0 mm 1 m/s 751 mmHg 64%
18:00 +15°C° 0 mm 1 m/s 751 mmHg 68%
19:00 +13°C° 0 mm 1 m/s 751 mmHg 72%
20:00 +13°C° 0 mm 1 m/s 751 mmHg 74%
21:00 +12°C° 0 mm 1 m/s 751 mmHg 77%
22:00 +12°C° 0 mm 1 m/s 751 mmHg 80%
23:00 +11°C° 0 mm 1 m/s 750 mmHg 82%
Arată mai mult